Wind_Speed
11 11 11 11 10 10 10 9 9 9 9 9 10 10 10 10 11 12 13 13 14 15 16 16 16 16 16 16 16 15 13 12 11 10 8 8 8 9 10 11 12 13 13
11 10 10 10 10 10 10 9 9 9 9 9 9 10 9 10 11 11 12 13 14 15 15 17 18 17 17 17 16 16 15 13 13 11 10 9 9 9 10 11 12 13 13
10 10 10 10 10 9 9 8 7 7 7 8 8 8 8 8 9 10 12 13 14 15 16 16 18 18 18 18 17 17 17 15 14 12 12 11 10 10 10 10 11 12 12
10 10 10 11 10 10 9 8 8 7 6 6 5 5 5 6 7 9 10 12 14 15 16 16 17 18 18 18 18 18 18 16 15 13 12 12 11 11 11 11 11 12 12
11 11 11 11 10 10 10 9 8 7 6 5 4 3 3 4 6 8 9 11 12 14 15 16 17 18 19 18 18 18 18 17 16 15 14 13 12 11 12 12 11 12 12
12 12 12 12 11 11 10 9 9 7 6 5 4 2 2 3 4 6 8 10 11 13 14 15 16 18 19 19 18 19 19 18 17 16 15 15 13 13 13 13 13 13 13
13 13 13 13 12 11 11 10 10 9 7 6 4 3 2 1 3 5 7 8 10 12 13 14 15 17 18 19 19 19 19 20 19 18 17 16 15 15 14 14 14 14 14
13 14 14 13 13 12 12 12 11 10 9 7 6 5 4 2 2 3 5 7 8 10 12 13 14 17 18 19 19 19 19 20 20 19 18 18 17 16 16 15 15 14 15
14 14 15 15 15 14 14 13 12 11 10 9 8 7 6 5 4 3 4 5 6 8 10 12 13 15 17 18 19 19 19 20 20 21 20 19 19 18 18 17 16 15 16
14 15 15 16 16 16 16 15 14 13 12 11 9 8 7 6 5 4 3 4 5 6 8 10 12 14 16 17 18 19 19 20 20 21 21 21 20 20 20 19 18 17 16
15 15 16 16 17 17 17 17 16 15 13 13 12 10 9 8 7 5 4 3 3 5 7 9 11 13 15 17 17 19 20 20 20 21 22 22 22 21 21 21 20 19 18
14 15 16 16 16 17 17 17 17 16 15 14 13 12 11 9 8 6 4 3 2 3 5 7 9 11 13 16 17 18 20 20 20 21 22 23 23 23 22 22 22 22 21
13 14 15 15 15 16 16 17 17 17 16 15 14 13 11 10 8 7 5 4 2 2 3 6 8 10 12 14 16 17 19 21 21 22 22 23 24 23 23 24 24 23 23
13 13 14 14 14 15 15 15 16 15 15 15 14 13 12 11 10 8 6 5 3 1 2 4 7 8 10 12 14 16 18 20 21 22 23 23 23 24 25 25 26 25 24
11 12 12 12 13 13 13 14 14 15 14 14 13 13 12 11 10 9 7 5 4 2 2 3 5 7 9 11 13 15 17 19 20 22 23 24 24 24 25 25 26 26 26
9 10 11 11 11 12 12 13 13 14 14 13 13 12 11 11 10 9 8 7 5 4 4 4 5 6 8 10 12 14 16 18 20 22 23 24 25 25 26 26 27 28 28
7 8 9 10 11 11 11 12 12 13 13 13 12 12 11 11 10 10 9 8 7 6 5 6 7 7 8 10 12 13 15 17 19 21 23 24 26 26 26 27 28 29 29
6 7 8 9 10 10 11 11 12 12 13 13 12 12 11 11 11 11 10 9 9 9 8 8 8 9 10 11 12 13 14 16 18 21 23 24 26 27 27 28 28 30 30
6 6 7 8 9 10 10 11 12 12 13 13 12 12 11 11 12 12 12 12 11 11 11 10 11 11 12 13 14 15 16 17 18 20 22 23 25 27 27 28 29 30 31
6 7 8 9 10 10 11 11 12 13 13 13 12 12 12 13 13 13 14 14 14 14 14 13 13 14 15 16 16 17 18 19 20 21 22 23 25 26 28 28 29 30 30
7 8 10 11 11 12 12 13 14 14 15 15 14 14 14 15 16 16 16 17 17 17 17 17 17 17 18 18 19 19 20 21 22 23 24 25 26 27 29 29 30 31 31
9 10 11 12 13 14 15 15 16 16 17 17 17 17 17 18 18 19 19 20 20 21 21 21 21 21 21 22 22 23 23 24 24 25 26 27 28 29 30 31 31 32 32
11 12 13 14 15 16 17 18 18 19 19 19 20 20 21 22 22 23 23 24 24 24 24 24 25 25 25 26 26 26 27 27 27 28 29 29 31 32 32 33 34 34 34
13 15 16 17 18 19 20 21 21 22 22 22 23 23 24 25 26 26 27 27 27 27 27 27 28 28 29 30 29 29 30 30 30 31 32 32 33 34 35 35 36 36 36
16 17 19 20 21 22 23 24 25 25 25 25 26 27 28 28 29 30 30 29 29 29 30 30 30 30 30 30 31 32 32 33 33 34 34 35 35 37 38 38 39 39 38
19 20 22 23 24 25 26 27 27 27 27 28 29 30 31 31 31 32 32 32 32 33 33 33 33 32 32 32 33 34 35 36 36 36 37 38 38 39 40 40 41 41 41
Wind_Direction
335 335 335 334 332 327 320 313 305 300 295 288 280 272 266 259 249 240 229 224 221 217 214 212 208 208 206 204 200 199 198 195 191 188 186 179 165 157 158 157 158 156 157
341 342 344 343 339 333 326 319 311 303 299 294 285 276 266 257 246 236 227 222 218 215 214 212 209 208 207 205 203 202 199 197 194 192 187 182 171 165 160 157 161 159 158
354 354 354 353 350 347 343 336 326 318 311 304 292 280 265 253 242 231 225 219 215 214 213 212 208 208 208 206 205 204 201 199 198 195 189 185 178 170 167 164 164 162 161
6 4 2 1 1 358 354 352 344 337 330 319 307 290 266 248 234 224 221 216 212 213 213 212 209 209 208 207 206 205 202 201 200 196 195 191 185 179 179 176 172 169 169
15 12 10 9 9 6 4 2 356 353 349 343 331 308 269 244 227 218 215 212 211 212 213 212 211 209 208 209 208 206 204 202 202 200 199 197 194 191 190 189 186 183 181
22 20 18 15 15 15 14 15 12 9 7 5 0 344 292 242 222 214 209 207 209 210 212 212 209 208 208 208 209 208 206 205 205 205 203 202 201 198 195 196 197 193 192
26 24 23 22 23 24 25 26 25 24 22 23 27 31 32 230 208 206 205 206 208 206 208 208 208 207 208 209 210 210 209 208 208 208 209 207 207 205 201 200 201 203 203
31 30 30 30 32 33 32 33 32 34 35 38 48 57 63 78 146 181 190 197 202 204 207 208 208 206 207 209 211 213 212 210 210 211 213 212 212 213 211 208 210 209 209
39 38 38 38 39 39 39 40 41 43 43 47 54 60 64 71 88 137 175 189 197 203 207 207 205 206 208 210 212 213 214 214 214 216 217 217 217 218 218 216 216 215 214
42 41 42 43 43 44 44 45 46 49 50 52 53 55 59 65 77 95 140 174 189 201 204 204 207 207 209 212 214 215 217 218 220 221 222 221 221 222 222 221 220 220 218
46 45 44 45 46 46 48 49 50 51 53 54 55 57 59 61 68 73 94 138 169 191 202 207 208 209 212 215 217 219 220 223 224 225 226 225 223 224 226 226 224 223 223
49 47 46 47 48 48 48 48 49 50 52 52 53 55 58 59 61 64 74 101 142 182 205 210 213 216 219 220 222 225 225 226 227 228 229 228 227 227 227 227 227 227 227
47 46 45 46 46 46 45 44 43 45 47 48 50 51 54 54 53 57 63 74 109 168 209 217 218 221 224 226 228 230 229 229 231 232 233 233 232 232 230 229 229 229 230
44 42 41 41 40 40 40 39 38 40 40 42 45 45 47 46 47 49 50 52 62 98 222 227 226 228 230 233 235 235 233 234 234 235 235 237 239 236 235 233 232 231 233
41 39 36 33 32 33 34 34 35 35 37 38 40 40 40 39 37 35 32 30 27 13 327 268 250 246 244 240 239 239 239 238 237 238 239 241 242 240 240 237 235 235 236
35 33 31 28 26 25 25 26 28 30 31 31 32 32 32 31 28 26 22 17 5 347 321 298 275 259 253 249 246 244 244 244 243 244 244 244 245 244 241 239 239 239 239
24 23 22 21 20 20 20 20 21 22 23 22 23 22 21 20 18 16 13 8 359 344 323 307 293 276 265 260 256 253 252 250 248 248 247 246 246 245 244 244 243 243 242
8 9 10 11 12 12 14 13 12 11 11 10 10 10 9 7 4 0 357 351 345 337 324 311 300 290 280 271 263 261 260 259 256 254 252 251 250 248 248 248 247 247 247
352 356 357 359 359 359 359 359 359 359 358 358 359 359 358 356 354 349 345 341 334 328 320 308 296 290 285 279 271 268 266 264 261 259 257 254 253 251 250 248 249 250 250
333 340 342 343 343 343 342 344 344 345 345 346 346 344 343 341 339 337 333 329 325 320 315 309 300 292 286 282 276 271 269 268 266 263 261 257 256 256 255 253 252 252 251
312 321 328 331 332 331 330 331 331 333 334 335 334 331 329 328 325 324 323 320 317 313 309 304 300 294 288 284 279 275 273 272 270 267 265 262 259 259 257 257 257 257 255
303 311 318 321 323 324 324 323 323 324 325 325 324 323 321 321 319 317 315 314 312 308 305 302 298 293 287 283 279 276 274 273 272 269 267 264 262 260 259 258 258 257 257
299 306 311 314 316 317 318 318 317 317 317 317 317 317 316 315 314 313 312 310 308 306 304 301 297 292 287 282 280 276 273 272 272 271 269 267 264 263 261 260 260 259 259
296 301 305 308 310 311 312 313 311 310 310 310 310 311 312 312 310 309 309 307 306 304 303 301 297 292 287 283 279 276 273 272 272 272 270 269 267 265 263 262 262 262 261
294 298 301 304 306 307 307 307 307 307 306 306 307 308 308 309 308 307 307 305 305 303 301 299 296 292 288 284 279 276 274 273 274 274 273 271 269 267 265 265 264 263 262
292 296 299 301 303 305 305 304 304 304 304 303 304 305 306 307 306 306 305 303 302 302 301 298 295 291 287 285 281 278 276 275 275 275 274 273 270 269 267 267 266 263 263
Height
5866 5863 5861 5860 5858 5856 5855 5854 5853 5852 5851 5850 5850 5849 5850 5849 5850 5850 5852 5853 5855 5856 5859 5861 5863 5865 5868 5870 5872 5874 5876 5878 5879 5880 5882 5882 5882 5883 5884 5885 5886 5887 5889
5864 5862 5860 5858 5856 5854 5853 5851 5850 5849 5848 5848 5847 5846 5846 5846 5847 5847 5849 5850 5852 5854 5857 5859 5861 5864 5866 5869 5871 5873 5876 5878 5879 5881 5882 5883 5884 5885 5886 5886 5888 5889 5891
5863 5861 5859 5857 5855 5852 5851 5849 5848 5847 5846 5845 5844 5844 5844 5844 5844 5845 5846 5848 5850 5852 5854 5857 5859 5862 5865 5867 5870 5872 5875 5877 5879 5880 5882 5883 5885 5886 5887 5888 5889 5890 5892
5862 5860 5858 5856 5854 5851 5850 5848 5846 5845 5844 5843 5842 5841 5841 5841 5842 5843 5844 5846 5848 5850 5852 5855 5858 5860 5863 5866 5869 5871 5874 5876 5878 5880 5882 5884 5885 5886 5888 5889 5890 5892 5894
5862 5860 5858 5855 5853 5851 5849 5847 5845 5844 5842 5841 5840 5840 5840 5840 5840 5841 5842 5844 5846 5848 5850 5853 5856 5859 5862 5864 5867 5870 5872 5875 5877 5879 5881 5883 5885 5887 5888 5890 5891 5893 5895
5862 5860 5858 5855 5853 5851 5848 5846 5844 5842 5841 5840 5839 5839 5838 5839 5839 5840 5841 5842 5844 5846 5849 5851 5854 5857 5860 5863 5866 5868 5871 5874 5876 5879 5881 5883 5885 5886 5888 5890 5891 5893 5895
5863 5861 5858 5855 5853 5851 5848 5846 5844 5842 5841 5840 5839 5839 5838 5838 5838 5839 5840 5841 5843 5845 5847 5850 5852 5855 5858 5861 5864 5867 5869 5872 5875 5877 5879 5882 5884 5886 5888 5889 5891 5893 5895
5864 5861 5859 5856 5854 5851 5849 5847 5845 5843 5841 5840 5839 5839 5838 5839 5838 5839 5840 5841 5842 5844 5846 5848 5851 5853 5856 5859 5862 5865 5868 5871 5873 5876 5878 5880 5882 5885 5886 5888 5890 5892 5893
5865 5863 5860 5858 5855 5852 5850 5848 5846 5844 5843 5842 5840 5840 5839 5839 5839 5839 5840 5841 5842 5843 5845 5847 5850 5852 5855 5857 5860 5863 5866 5869 5871 5874 5876 5878 5881 5883 5885 5887 5889 5890 5892
5867 5864 5862 5859 5857 5854 5852 5850 5848 5846 5845 5843 5842 5841 5841 5840 5840 5840 5841 5841 5842 5843 5845 5847 5849 5851 5853 5856 5858 5861 5864 5866 5869 5871 5874 5876 5879 5881 5883 5885 5887 5888 5889
5869 5866 5864 5862 5859 5857 5855 5852 5850 5848 5847 5845 5844 5843 5842 5842 5841 5841 5841 5842 5843 5844 5845 5846 5848 5850 5852 5854 5857 5859 5862 5864 5866 5869 5871 5873 5876 5878 5880 5882 5885 5886 5888
5871 5868 5866 5864 5862 5860 5857 5855 5853 5851 5849 5848 5846 5845 5844 5843 5843 5842 5842 5842 5843 5844 5845 5846 5847 5849 5851 5853 5855 5857 5859 5862 5864 5866 5868 5870 5873 5875 5877 5879 5881 5884 5886
5872 5870 5868 5866 5864 5862 5860 5858 5856 5854 5852 5850 5848 5847 5846 5845 5844 5844 5843 5843 5844 5844 5845 5846 5847 5848 5849 5851 5853 5855 5857 5859 5861 5863 5865 5867 5869 5871 5873 5875 5878 5880 5882
5874 5872 5870 5868 5866 5864 5862 5860 5858 5856 5854 5852 5851 5849 5848 5847 5846 5845 5845 5844 5844 5845 5845 5845 5846 5847 5848 5849 5851 5853 5854 5856 5858 5860 5861 5863 5865 5867 5869 5871 5873 5876 5878
5875 5873 5872 5870 5868 5866 5864 5862 5860 5858 5856 5854 5853 5851 5850 5848 5847 5846 5846 5845 5845 5845 5845 5845 5845 5846 5846 5847 5848 5850 5851 5853 5854 5856 5858 5859 5861 5863 5864 5866 5869 5871 5873
5876 5874 5873 5871 5869 5867 5866 5864 5862 5860 5858 5856 5854 5853 5851 5850 5848 5847 5846 5845 5845 5845 5844 5844 5844 5844 5845 5845 5846 5847 5848 5849 5851 5852 5853 5855 5856 5858 5859 5861 5863 5866 5868
5876 5875 5873 5872 5870 5868 5866 5864 5863 5861 5859 5857 5855 5853 5852 5850 5849 5848 5846 5845 5845 5844 5843 5843 5843 5843 5843 5843 5843 5844 5844 5845 5846 5848 5849 5850 5851 5853 5854 5856 5858 5859 5861
5876 5875 5873 5872 5870 5868 5867 5865 5863 5861 5859 5857 5855 5854 5852 5850 5849 5848 5846 5845 5844 5842 5842 5841 5840 5840 5840 5840 5840 5840 5841 5841 5842 5843 5844 5845 5846 5847 5848 5850 5851 5853 5855
5876 5874 5873 5872 5870 5868 5866 5865 5863 5861 5859 5857 5855 5853 5851 5850 5848 5847 5845 5843 5842 5840 5839 5838 5838 5837 5837 5836 5836 5836 5836 5836 5837 5837 5838 5839 5840 5841 5842 5843 5845 5846 5848
5875 5873 5872 5871 5869 5867 5866 5864 5862 5860 5858 5856 5854 5852 5850 5848 5847 5845 5843 5841 5839 5837 5836 5835 5834 5833 5832 5832 5832 5832 5832 5831 5832 5832 5832 5833 5834 5834 5835 5836 5838 5839 5840
5873 5872 5870 5869 5867 5866 5864 5862 5860 5858 5856 5854 5852 5850 5848 5846 5844 5842 5840 5837 5835 5833 5832 5830 5829 5828 5827 5826 5826 5826 5825 5825 5825 5825 5826 5826 5827 5827 5828 5829 5830 5831 5832
5870 5869 5868 5867 5865 5863 5861 5859 5857 5855 5853 5851 5849 5847 5845 5843 5840 5838 5835 5832 5830 5827 5825 5823 5822 5821 5820 5819 5818 5818 5818 5818 5818 5818 5818 5818 5819 5819 5820 5821 5822 5823 5824
5867 5866 5865 5864 5862 5860 5858 5856 5854 5851 5849 5847 5845 5843 5840 5838 5835 5832 5829 5826 5823 5820 5817 5815 5814 5812 5811 5810 5810 5809 5809 5809 5809 5809 5809 5810 5810 5810 5811 5812 5813 5813 5814
5864 5863 5861 5860 5858 5856 5854 5851 5849 5846 5844 5842 5840 5837 5835 5832 5829 5826 5823 5819 5815 5812 5809 5807 5804 5803 5801 5800 5800 5799 5799 5799 5799 5799 5799 5800 5799 5800 5801 5801 5802 5803 5804
5860 5858 5857 5855 5853 5851 5848 5846 5843 5840 5838 5836 5834 5831 5828 5825 5822 5818 5815 5811 5807 5804 5800 5797 5795 5793 5791 5790 5789 5789 5789 5789 5789 5789 5788 5788 5788 5788 5789 5790 5790 5791 5792
5855 5853 5851 5849 5847 5845 5842 5839 5836 5834 5832 5829 5827 5824 5821 5817 5814 5810 5806 5802 5798 5795 5791 5788 5785 5783 5781 5780 5779 5778 5777 5777 5777 5777 5777 5776 5776 5775 5777 5778 5778 5778 5779